Location: Aboncourt
(47.7710°N, 5.9826°E)
Time: 02:57:16
(UTC+00:00)

Cosmos 773 Rocket - Pass Details

Date: 05 July 2020
Orbit: 746 x 776 km, 74.1° (Epoch: 03 August)

Event Time Altitude Azimuth Distance (km) Brightness Sun altitude
Rises 20:49:44 0° 190° (S) 3,242 6.9 -9.8°
Reaches altitude 10° 20:52:07 10° 187° (S) 2,319 6.1 -10.0°
Maximum altitude 20:57:19 63° 108° (ESE) 868 4.1 -10.6°
Drops below altitude 10° 21:02:33 10° 28° (NNE) 2,332 6.8 -11.1°
Sets 21:04:57 0° 26° (NNE) 3,260 7.7 -11.3°
